COSMOS 252 DEB, 19294

Orbit data source: Space-Track

COSMOS 252 DEB, 19294 is space debris in LEO originally from a launch on Fri, 01 Nov 1968 UTC launched from the Tyuratam Missile And Space Complex (TTMTR). Debris objects in space refer to the collection of defunct objects orbiting the Earth. Examples of debris include non-operational satellites, rocket bodies, and fragments generated from explosions, collisions, or faulty payload assembly.

Loading next visibility...
Identifier
19294, 1968-097EE
Orbit
LEO
Country
Flag of CISCIS
Related business
Manufacturer
Unknown
Mission
Spacecraft
Bus & Motor
Unknown
Mass
Unknown
Launch date (UTC)
1968-11-01 (57 years ago)
Launch vehicle
Unknown
Launch site
Tyuratam Missile And Space Complex (TTMTR)
Object type
Payload
Rocket body
Debris
Shape & HBR
Unknown shape, 0.1 m
Radar Cross Section
Small (<0.1 m²)

Expand to show TLE details & history
Last TLE update: 5 days ago

TLE from 5 days ago
0 COSMOS 252 DEB
1 19294U 68097EE  25283.89073257  .00001600  00000-0  17584-2 0  9990
2 19294  62.2467 246.6002 0619362 259.7663  93.2976 13.13042025772529
Epoch: 2025-10-10T21:22Z
TLE epoch observation values (Epoch: 2025-10-10T21:22:39.294Z)
Latitude
0.00006°
Longitude
-93.79357°
Altitude
1,268.889 km
Speed
7.195 km/s
True Right ascension
16h 26m 24s
True Declination
0° 00' 00"
Sunlit
Object was in daylight at epoch
Visualization orbit readout
Latitude
Unknown
Longitude
Unknown
Altitude
Unknown
Speed
Unknown
Apparent Right ascension
Unknown
Apparent Declination
Unknown
Sunlit
N/A
Visualization observer readout
Local Sidereal Time
06:55:49
Azimuth
Unknown
Elevation
Unknown
Doppler factor
Unknown
Orbital elements
Apogee altitude
1,680.404 km
Perigee altitude
740.394 km
Semi-major axis
7,588.536 km
Eccentricity
0.06194
Inclination
62.2467°
RAAN
246.6002°
Arg. of periapsis
259.7663°
True anomaly
100.33408°
Mean anomaly
93.2976°
Eccentric anomaly
96.82116°
Mean motion
3.28327 °/min
Orbital period
109.65 mins
BSTAR
0.0017584
Loading maneuver chart data...
Computing Atmospheric mass density...

Documentation

Showing up to 5 results
|